Location: Bill Sadowski Park
(25.6087°N, 80.3181°W)
Time: 03:54:46
(UTC-05:00)

OTV 5 (USA 277) - Visible Passes

Search period start: 20 January 2018 00:00
Search period end: 30 January 2018 00:00
Orbit: 404 x 417 km, 43.0° (Epoch: 07 September)

Date Brightness Start Highest point End Pass type
(mag) Time Alt. Az. Time Alt. Az. Time Alt. Az.
20 Jan ? 18:43:25 10° SW 18:46:46 70° SE 18:48:59 19° ENE visible
21 Jan ? 19:30:28 10° W 19:33:07 21° NNW 19:33:23 21° NNW visible
22 Jan ? 18:38:52 10° W 18:41:57 33° NNW 18:44:58 10° NNE visible
24 Jan ? 18:35:27 10° WNW 18:37:21 14° NNW 18:39:16 10° N visible
